Theta_e
320 320 319 321 322 322 322 323 323 323 323 324 324 325 326 325 325 321 310 322 326 361 359 348 344 341 344 336 342 338 325 319 318 319 322 329 325 329 332 329 330 333 336 341 346
319 319 319 319 320 321 321 321 322 322 323 323 323 324 326 326 320 313 332 345 356 363 336 325 320 331 327 332 335 331 324 321 325 326 324 328 327 328 327 326 329 334 342 344 345
319 318 319 319 320 320 321 321 321 321 322 322 323 324 326 327 309 308 345 349 364 354 324 322 322 323 321 323 330 328 321 325 326 329 329 328 328 331 327 323 329 332 337 341 341
319 319 319 319 319 320 320 320 321 321 321 322 323 325 327 323 301 314 353 357 364 346 320 320 323 323 320 319 322 318 322 325 329 331 329 328 330 328 329 329 332 337 340 340 339
319 319 319 319 319 319 320 320 320 320 320 321 323 325 321 307 308 316 347 357 350 333 319 320 323 322 319 319 320 319 320 326 331 329 330 332 328 328 329 332 336 338 339 338 337
318 318 318 318 319 319 319 319 319 319 320 321 323 325 317 303 313 319 321 331 328 319 318 320 324 324 321 319 318 320 324 328 330 329 330 328 329 330 328 335 335 337 337 339 339
318 318 318 318 318 318 318 318 318 319 320 322 323 326 315 309 318 320 322 319 320 319 318 319 323 322 321 318 321 322 322 325 327 327 327 330 324 326 330 334 334 335 337 338 340
318 318 318 318 318 318 318 317 317 320 322 323 325 326 309 316 319 321 321 316 317 319 319 321 324 319 319 321 320 320 320 316 323 326 324 325 319 325 330 333 332 334 335 337 339
318 318 318 318 317 317 315 315 318 323 326 327 322 315 307 323 318 319 320 315 316 314 315 320 320 316 319 317 315 316 313 314 316 325 323 323 319 326 328 330 331 333 335 336 338
318 317 317 317 316 314 314 316 318 321 325 326 324 311 314 311 316 319 318 317 313 312 314 315 318 316 316 316 308 309 310 311 311 317 322 320 320 325 326 327 328 330 333 335 336
319 317 316 316 315 313 313 317 316 312 319 313 309 305 309 317 319 315 315 312 312 310 307 312 312 312 315 316 315 313 311 309 313 317 318 318 319 321 327 326 326 327 328 330 334
318 317 316 315 313 313 312 315 313 313 309 314 315 314 315 317 313 315 313 311 309 305 307 309 308 315 316 315 313 312 310 310 314 318 318 317 317 321 326 327 328 328 328 329 331
318 317 315 313 313 312 310 315 315 315 309 310 313 314 316 317 313 312 311 307 306 303 305 307 310 313 314 312 312 310 310 309 310 314 318 317 315 318 323 328 330 331 331 332 332
318 316 314 311 309 308 313 315 314 315 307 309 310 313 316 317 312 319 311 309 305 304 304 306 308 310 311 311 312 309 311 311 309 308 304 315 304 316 317 322 325 328 330 331 333
318 316 312 310 307 308 313 313 314 313 296 310 309 317 315 311 310 310 312 310 305 303 305 305 305 307 309 311 312 311 312 309 308 308 307 309 308 311 316 316 320 326 329 332 334
317 314 311 308 308 311 312 313 314 305 297 308 309 309 310 310 309 309 310 311 308 305 304 306 307 308 310 309 313 309 307 305 305 308 301 306 308 306 312 316 319 324 329 331 334
314 311 310 311 308 312 313 315 303 300 309 303 304 308 307 307 308 308 307 305 303 299 300 303 304 306 307 305 306 307 304 299 298 299 299 303 306 308 314 314 318 322 325 332 334
310 308 310 312 313 311 315 310 300 306 306 307 305 306 304 306 305 304 304 304 302 302 300 299 298 304 307 307 305 304 304 300 295 295 298 300 300 306 314 322 325 327 327 332 335
309 312 312 315 314 312 314 300 305 307 309 305 305 303 303 304 304 303 304 304 306 304 302 300 300 304 305 306 307 301 302 303 298 296 298 301 305 310 319 323 324 324 327 330 334
309 314 317 314 315 314 310 299 305 309 310 307 301 303 302 303 303 302 302 305 305 305 306 303 300 303 303 306 304 305 304 300 301 295 293 299 301 305 315 318 322 324 325 329 330
311 316 317 314 312 313 303 301 305 310 310 307 306 304 303 305 304 302 303 305 305 303 305 303 302 302 304 303 303 302 302 300 302 300 297 297 301 310 313 317 318 322 326 328 329
306 312 318 313 308 303 304 305 303 310 313 310 308 308 308 307 306 303 302 304 305 306 303 304 303 302 302 304 305 304 304 305 301 298 299 299 301 315 318 319 320 322 324 325 328
306 311 320 312 303 304 305 305 307 309 312 310 309 310 311 309 306 304 302 308 304 307 306 305 302 301 302 306 306 304 301 301 302 303 301 299 303 311 324 323 322 323 326 327 328
311 311 313 310 305 304 304 306 306 311 311 311 310 312 311 312 314 311 310 312 305 308 320 312 303 303 302 305 307 307 301 301 303 302 301 302 306 314 323 323 328 333 333 331 331
311 309 308 307 307 308 307 307 306 307 311 311 310 310 310 310 313 312 313 312 312 316 308 310 306 307 306 308 308 308 305 301 303 305 305 309 309 319 325 328 331 336 336 338 341
307 309 309 307 307 307 303 307 305 309 309 310 309 313 314 314 314 312 314 314 312 311 309 308 306 309 307 310 313 312 313 307 310 307 315 314 315 326 330 334 331 330 333 336 337
305 310 309 301 307 307 307 307 307 308 313 314 315 315 314 314 316 318 318 316 314 313 311 311 310 309 305 307 308 306 311 313 316 317 317 311 319 327 329 330 328 331 330 329 330
Wind_Speed
14 15 15 16 15 15 16 17 17 18 18 20 19 18 16 18 17 3 5 3 4 12 9 8 4 2 1 1 1 1 0 1 1 2 1 11 6 5 5 13 3 3 6 13 19
14 15 15 15 15 16 16 16 17 18 19 19 19 18 16 18 3 6 5 4 8 11 6 5 1 4 2 1 2 2 1 3 1 4 3 11 8 10 5 12 5 11 15 20 18
14 15 15 15 16 16 16 17 17 18 19 19 19 18 15 12 4 3 7 3 12 10 3 2 1 1 1 2 3 2 2 2 3 5 8 11 8 5 12 8 8 16 21 20 18
15 15 16 16 16 17 16 17 17 18 18 18 18 17 17 3 3 2 9 4 9 5 2 2 1 2 3 4 2 3 5 4 3 8 8 9 7 6 8 1 10 20 21 20 19
15 15 16 17 17 17 17 17 17 17 17 16 16 15 5 2 7 4 5 5 12 7 5 3 1 2 2 4 3 3 4 1 5 10 10 10 5 1 7 7 18 18 19 19 18
16 16 16 17 18 18 19 17 17 17 16 15 13 10 3 4 2 2 5 6 8 7 6 4 3 1 1 2 2 5 2 5 5 9 8 8 4 4 5 14 18 21 19 17 17
17 17 17 18 18 19 19 19 19 18 16 14 8 3 2 11 2 5 4 3 4 5 5 4 3 3 0 1 4 2 5 7 5 4 3 7 4 7 12 16 18 20 18 16 16
17 18 18 18 19 20 20 21 20 18 14 9 5 3 7 3 2 8 2 3 2 1 2 2 3 1 3 1 3 1 3 2 1 4 4 5 5 3 16 18 17 18 17 17 17
16 18 18 19 19 20 22 20 18 6 4 10 4 3 7 5 3 0 4 5 5 2 1 5 2 1 2 1 2 3 6 2 2 4 2 7 5 5 16 16 16 16 18 18 18
16 18 19 19 20 22 23 18 4 1 3 3 2 3 4 1 3 2 3 4 3 5 5 2 2 5 3 4 4 4 4 1 3 1 5 6 10 6 15 17 17 17 17 17 18
18 19 19 20 22 21 11 3 3 3 4 5 3 2 3 7 3 2 3 6 3 3 7 2 7 11 10 4 6 5 2 3 4 6 4 5 9 8 14 16 17 18 18 19 20
18 19 20 21 22 17 3 2 5 2 6 5 8 7 6 3 3 2 5 7 4 7 5 6 12 8 7 7 7 5 2 4 6 3 4 4 9 8 18 23 22 21 20 21 19
19 19 19 22 22 4 3 3 3 3 3 3 4 4 3 8 4 6 9 5 6 6 7 10 5 10 7 8 8 4 5 1 6 9 3 5 7 4 7 13 17 19 19 21 21
20 18 20 24 4 4 2 3 6 5 3 2 3 2 5 4 3 2 5 4 3 9 8 4 3 9 9 9 7 9 4 4 4 4 5 6 6 8 2 9 13 19 23 22 22
21 18 18 10 7 3 3 7 2 4 2 4 4 3 2 3 5 3 2 2 8 7 6 5 7 8 9 9 8 5 3 1 1 4 4 1 5 9 4 13 8 15 19 22 22
22 17 17 3 3 5 6 5 4 4 3 4 4 6 6 1 2 4 4 4 3 5 0 1 1 4 7 3 8 9 5 6 3 3 5 1 6 11 6 7 6 2 9 17 20
22 18 6 2 1 6 6 3 2 3 1 5 4 7 5 4 3 3 8 8 5 6 7 3 4 1 3 5 3 5 6 5 7 6 6 3 5 11 12 8 12 13 8 11 16
23 13 5 4 3 7 3 2 2 1 1 1 4 8 6 6 2 3 7 9 3 3 5 9 8 9 8 7 6 9 8 4 6 5 6 3 6 9 2 10 8 7 8 7 14
19 1 2 2 4 3 2 3 2 2 2 1 5 4 3 4 3 4 8 9 8 11 3 6 5 2 4 3 2 6 5 3 5 1 4 1 6 12 3 7 5 2 2 4 8
4 3 3 5 4 2 1 3 3 3 3 2 3 2 6 6 6 6 8 5 7 12 3 5 4 2 4 4 8 3 10 5 1 3 4 4 5 6 6 9 6 3 3 2 2
2 1 5 3 3 1 3 3 5 6 6 5 3 4 2 4 5 4 4 2 5 9 3 5 2 4 2 4 9 6 4 5 4 2 3 3 3 1 10 11 12 7 4 2 3
3 2 3 2 1 1 2 2 3 5 1 3 1 2 2 4 4 3 5 4 7 12 9 3 1 2 4 3 1 2 3 7 4 5 0 3 6 4 6 8 7 10 8 3 5
3 2 2 3 2 0 2 3 4 3 3 2 1 0 1 2 2 3 3 2 9 10 10 10 4 3 6 6 3 2 3 2 5 3 6 3 1 3 7 8 13 11 8 5 2
2 1 1 2 1 1 2 1 4 3 4 3 2 2 3 2 2 2 1 4 6 4 3 7 3 2 2 3 1 3 4 5 5 4 6 5 5 8 12 12 13 12 10 7 5
1 2 3 2 2 1 1 2 3 3 1 3 1 3 2 2 1 3 2 3 4 6 3 2 4 2 3 1 3 1 5 9 7 2 4 3 3 7 9 7 9 8 10 11 11
2 2 0 1 1 2 1 1 2 4 3 2 2 2 2 4 4 2 0 2 3 4 3 1 4 1 4 5 4 5 5 6 4 5 3 2 2 2 3 3 10 10 10 11 11
1 1 3 1 1 3 1 1 1 5 3 3 1 5 9 3 5 5 3 3 4 1 4 2 6 4 5 2 0 4 0 1 1 2 2 3 2 2 4 4 6 7 9 9 9
Wind_Direction
345 342 341 337 337 335 333 330 329 326 326 325 326 330 335 335 313 269 238 228 140 155 124 146 182 136 176 84 207 174 307 270 263 203 121 154 131 144 104 136 94 27 141 135 148
339 338 336 333 333 330 329 326 325 324 324 323 324 329 332 335 304 249 260 302 152 163 137 173 164 149 82 63 166 238 224 221 232 176 183 168 149 140 131 150 76 88 109 130 150
344 338 334 331 329 326 324 322 321 321 320 321 322 327 326 321 285 246 340 172 168 178 143 172 136 113 34 194 189 179 271 184 237 205 148 164 144 135 137 191 178 158 146 151 161
340 337 333 330 326 323 319 318 317 317 317 317 320 326 322 282 210 293 325 276 170 186 145 154 123 353 347 356 48 291 276 225 167 145 133 160 143 156 170 136 169 160 156 157 169
338 335 331 327 323 319 316 315 314 312 312 312 317 327 321 307 254 328 350 115 152 169 194 195 194 129 333 327 313 247 311 331 136 120 115 132 168 153 190 119 137 150 158 169 179
334 330 329 325 322 319 315 312 309 307 304 302 308 321 274 264 133 63 8 130 151 171 180 201 192 179 267 262 328 316 301 75 98 132 136 145 156 177 148 138 141 156 169 173 185
331 328 325 323 321 317 314 310 309 305 295 286 286 272 238 248 118 312 313 198 182 190 164 191 167 211 181 275 331 7 98 80 86 112 103 135 175 229 144 154 153 163 174 181 195
328 326 322 319 318 316 311 312 308 304 287 254 213 210 252 222 306 285 213 160 141 212 250 135 146 159 258 344 58 120 52 74 186 132 138 192 268 203 162 164 166 173 180 186 194
324 321 317 318 318 316 315 311 305 307 69 144 156 243 264 318 232 66 204 164 152 143 217 98 145 106 213 117 141 39 122 71 331 204 157 218 269 170 175 176 175 184 186 193 197
323 320 320 320 320 322 318 303 260 274 164 202 250 259 250 89 310 5 170 156 138 118 117 168 109 174 139 192 207 121 130 249 307 45 197 235 261 175 188 190 187 188 195 199 202
324 321 320 321 324 326 327 157 209 171 204 226 153 280 298 309 264 172 169 134 124 99 183 122 199 199 190 166 141 120 128 283 264 294 266 250 262 206 194 210 204 198 200 203 212
322 321 322 327 325 322 269 101 92 7 297 236 251 271 269 274 287 135 167 163 154 182 150 168 217 193 157 144 146 151 182 259 287 135 281 305 272 264 192 209 213 207 203 208 212
322 323 326 329 320 286 316 127 53 174 267 288 206 213 209 171 195 172 175 133 158 156 184 207 187 154 156 161 177 182 242 166 301 331 117 285 276 228 199 216 223 225 222 213 210
326 324 332 330 285 338 239 104 327 201 300 153 212 212 155 198 149 199 184 149 135 178 158 222 128 173 169 185 203 229 205 228 271 311 305 345 307 298 218 226 215 215 218 218 215
326 322 331 334 315 231 67 328 151 212 152 138 127 125 138 209 121 135 161 111 158 149 189 176 180 169 199 201 193 238 122 49 305 259 281 149 259 284 313 302 283 221 220 219 218
322 318 325 174 221 270 317 313 204 250 118 136 127 159 163 171 102 117 155 73 83 117 89 186 218 209 202 171 195 140 101 61 75 197 229 47 257 289 279 279 299 19 241 219 215
317 316 285 199 308 326 304 195 222 244 318 150 141 164 167 161 168 143 169 173 173 170 195 184 215 215 198 144 117 180 158 200 212 217 272 80 224 266 278 272 291 316 298 216 207
320 321 188 226 288 331 234 166 224 53 268 67 117 130 180 158 160 132 151 187 153 119 153 192 201 190 182 215 181 174 222 220 240 253 298 144 235 259 272 307 304 295 275 212 200
318 191 192 273 244 251 190 198 253 213 331 96 130 126 160 192 202 178 194 203 199 191 194 164 234 141 217 151 207 146 191 41 117 108 255 273 262 276 299 290 280 331 241 199 198
323 312 14 348 167 235 179 250 256 235 302 206 167 185 171 177 188 203 183 175 194 198 204 169 169 87 113 120 52 251 137 159 148 224 246 214 274 264 330 344 342 308 320 25 251
289 179 17 106 251 118 227 249 278 255 231 207 158 130 153 173 213 201 193 171 217 166 172 152 283 110 171 205 171 146 167 70 115 310 263 256 258 272 296 323 336 359 9 345 283
317 168 32 282 205 360 212 225 309 281 228 265 256 95 161 167 187 213 222 254 168 151 171 166 90 230 96 121 360 56 148 191 230 181 271 324 278 71 351 323 346 18 33 10 299
358 310 88 290 206 234 304 277 268 297 319 342 127 7 91 131 176 225 195 38 163 167 158 173 210 184 138 148 133 113 128 119 110 139 181 220 223 96 14 20 37 33 24 40 353
290 200 102 70 10 307 347 312 300 265 276 283 309 154 149 114 14 111 82 42 162 174 87 135 109 320 85 79 31 174 168 183 239 194 152 233 303 358 14 10 28 43 57 56 44
340 59 360 178 175 273 275 316 311 331 256 276 151 58 42 85 80 58 66 159 106 147 76 262 112 134 87 296 140 5 170 180 212 165 229 92 223 348 3 12 32 57 69 68 51
326 319 120 105 273 226 38 167 318 334 296 38 188 89 68 71 26 72 135 23 100 120 100 75 129 151 64 68 121 100 98 168 165 150 110 135 212 14 8 91 42 38 56 63 65
74 245 274 95 186 205 168 334 283 336 217 299 141 118 95 54 336 336 328 52 48 54 120 104 141 165 145 15 47 152 110 300 111 184 151 221 85 95 99 37 0 4 15 39 43